Time,TemperatureF,DewpointF,PressureIn,WindDirection,WindDirectionDegrees,WindSpeedMPH,WindSpeedGustMPH,Humidity,HourlyPrecipIn,Conditions,Clouds,dailyrainin,SoftwareType,DateUTC
2013-03-11 00:00:00,33.0,25.6,30.24,SW,225,4.6,10.2,74,0.00,,,0.00,WUHU216HW,2013-03-11 06:00:00,
2013-03-11 00:05:00,32.9,25.4,30.24,SW,225,4.4,10.2,74,0.00,,,0.00,WUHU216HW,2013-03-11 06:05:00,
2013-03-11 00:10:00,32.7,25.3,30.24,SW,225,6.9,8.2,74,0.00,,,0.00,WUHU216HW,2013-03-11 06:10:00,
2013-03-11 00:15:00,32.7,25.3,30.24,SSW,203,5.1,10.9,74,0.00,,,0.00,WUHU216HW,2013-03-11 06:15:00,
2013-03-11 00:20:00,32.7,25.3,30.24,SW,225,3.5,10.9,74,0.00,,,0.00,WUHU216HW,2013-03-11 06:20:00,
2013-03-11 00:25:00,32.5,25.1,30.24,SW,225,3.1,8.2,74,0.00,,,0.00,WUHU216HW,2013-03-11 06:25:00,
2013-03-11 00:30:00,32.3,25.3,30.23,SSW,203,6.7,8.2,75,0.00,,,0.00,WUHU216HW,2013-03-11 06:30:00,
2013-03-11 00:35:00,32.1,25.1,30.23,SW,225,2.6,6.7,75,0.00,,,0.00,WUHU216HW,2013-03-11 06:35:00,
2013-03-11 00:40:00,32.1,25.1,30.23,SW,225,2.0,5.8,75,0.00,,,0.00,WUHU216HW,2013-03-11 06:40:00,
2013-03-11 00:45:00,31.8,24.8,30.23,SW,225,4.0,6.4,75,0.00,,,0.00,WUHU216HW,2013-03-11 06:45:00,
2013-03-11 00:50:00,31.8,24.8,30.23,SW,225,3.1,6.9,75,0.00,,,0.00,WUHU216HW,2013-03-11 06:50:00,
2013-03-11 00:55:00,32.0,24.9,30.23,SW,225,2.2,6.9,75,0.00,,,0.00,WUHU216HW,2013-03-11 06:55:00,
2013-03-11 01:00:00,32.0,24.9,30.23,SW,225,6.0,6.2,75,0.00,,,0.00,WUHU216HW,2013-03-11 07:00:00,
2013-03-11 01:05:00,32.1,25.4,30.23,SW,225,3.5,6.2,76,0.00,,,0.00,WUHU216HW,2013-03-11 07:05:00,
2013-03-11 01:11:00,32.1,25.4,30.23,West,270,0.0,6.0,76,0.00,,,0.00,WUHU216HW,2013-03-11 07:11:00,
2013-03-11 01:16:00,32.1,25.4,30.23,SW,225,0.0,3.8,76,0.00,,,0.00,WUHU216HW,2013-03-11 07:16:00,
2013-03-11 01:21:00,32.3,25.6,30.23,West,270,4.4,4.4,76,0.00,,,0.00,WUHU216HW,2013-03-11 07:21:00,
2013-03-11 01:26:00,32.5,25.7,30.23,West,270,2.4,4.4,76,0.00,,,0.00,WUHU216HW,2013-03-11 07:26:00,
2013-03-11 01:31:00,32.5,25.4,30.23,West,270,0.0,3.5,75,0.00,,,0.00,WUHU216HW,2013-03-11 07:31:00,
2013-03-11 01:36:00,32.7,25.6,30.22,SW,225,2.9,3.5,75,0.00,,,0.00,WUHU216HW,2013-03-11 07:36:00,
2013-03-11 01:42:00,32.7,25.6,30.22,SSW,203,0.0,3.5,75,0.00,,,0.00,WUHU216HW,2013-03-11 07:42:00,
2013-03-11 01:47:00,32.7,25.6,30.23,West,270,1.5,3.5,75,0.00,,,0.00,WUHU216HW,2013-03-11 07:47:00,
2013-03-11 01:52:00,32.7,25.6,30.23,SW,225,3.8,4.4,75,0.00,,,0.00,WUHU216HW,2013-03-11 07:52:00,
2013-03-11 01:57:00,32.7,25.6,30.22,West,270,3.1,4.4,75,0.00,,,0.00,WUHU216HW,2013-03-11 07:57:00,
2013-03-11 02:02:00,32.7,25.6,30.22,WSW,248,3.3,3.3,75,0.00,,,0.00,WUHU216HW,2013-03-11 08:02:00,
2013-03-11 02:07:00,32.7,25.6,30.22,SW,225,3.1,3.8,75,0.00,,,0.00,WUHU216HW,2013-03-11 08:07:00,
2013-03-11 02:12:00,32.7,25.6,30.22,WSW,248,2.4,4.0,75,0.00,,,0.00,WUHU216HW,2013-03-11 08:12:00,
2013-03-11 02:17:00,32.7,25.6,30.22,West,270,4.0,4.0,75,0.00,,,0.00,WUHU216HW,2013-03-11 08:17:00,
2013-03-11 02:22:00,32.7,25.3,30.22,SW,225,2.0,4.0,74,0.00,,,0.00,WUHU216HW,2013-03-11 08:22:00,
2013-03-11 02:27:00,32.7,25.3,30.22,SSW,203,4.4,4.4,74,0.00,,,0.00,WUHU216HW,2013-03-11 08:27:00,
2013-03-11 02:33:00,32.7,25.3,30.22,SW,225,2.4,5.1,74,0.00,,,0.00,WUHU216HW,2013-03-11 08:33:00,
2013-03-11 02:38:00,32.7,25.3,30.22,SW,225,3.1,6.0,74,0.00,,,0.00,WUHU216HW,2013-03-11 08:38:00,
2013-03-11 02:43:00,32.9,25.4,30.22,SW,225,3.3,6.0,74,0.00,,,0.00,WUHU216HW,2013-03-11 08:43:00,
2013-03-11 02:48:00,32.9,25.4,30.22,SW,225,1.3,4.4,74,0.00,,,0.00,WUHU216HW,2013-03-11 08:48:00,
2013-03-11 02:53:00,32.9,25.4,30.22,WSW,248,2.0,4.2,74,0.00,,,0.00,WUHU216HW,2013-03-11 08:53:00,
2013-03-11 02:58:00,32.9,25.4,30.22,West,270,2.6,4.2,74,0.00,,,0.00,WUHU216HW,2013-03-11 08:58:00,
2013-03-11 03:03:00,33.0,25.6,30.22,SW,225,1.3,4.2,74,0.00,,,0.00,WUHU216HW,2013-03-11 09:03:00,
2013-03-11 03:08:00,33.0,25.6,30.22,SW,225,4.4,4.4,74,0.00,,,0.00,WUHU216HW,2013-03-11 09:08:00,
2013-03-11 03:13:00,32.9,25.4,30.22,SW,225,4.9,4.9,74,0.00,,,0.00,WUHU216HW,2013-03-11 09:13:00,
2013-03-11 03:18:00,32.9,25.4,30.22,West,270,3.5,4.9,74,0.00,,,0.00,WUHU216HW,2013-03-11 09:18:00,
2013-03-11 03:23:00,32.9,25.1,30.22,West,270,3.1,3.8,73,0.00,,,0.00,WUHU216HW,2013-03-11 09:23:00,
2013-03-11 03:28:00,32.9,25.1,30.22,West,270,2.6,3.8,73,0.00,,,0.00,WUHU216HW,2013-03-11 09:28:00,
2013-03-11 03:33:00,32.9,25.1,30.22,SSW,203,2.9,4.0,73,0.00,,,0.00,WUHU216HW,2013-03-11 09:33:00,
2013-03-11 03:38:00,32.9,25.1,30.22,West,270,3.3,4.0,73,0.00,,,0.00,WUHU216HW,2013-03-11 09:38:00,
2013-03-11 03:43:00,32.9,25.1,30.22,WSW,248,3.1,4.2,73,0.00,,,0.00,WUHU216HW,2013-03-11 09:43:00,
2013-03-11 03:48:00,32.7,24.9,30.22,West,270,3.1,4.2,73,0.00,,,0.00,WUHU216HW,2013-03-11 09:48:00,
2013-03-11 03:53:00,32.7,24.9,30.22,WSW,248,2.9,6.0,73,0.00,,,0.00,WUHU216HW,2013-03-11 09:53:00,
2013-03-11 03:59:00,32.7,24.9,30.22,SW,225,3.8,6.0,73,0.00,,,0.00,WUHU216HW,2013-03-11 09:59:00,
2013-03-11 04:04:00,32.7,24.9,30.22,SW,225,6.0,6.0,73,0.00,,,0.00,WUHU216HW,2013-03-11 10:04:00,
2013-03-11 04:09:00,32.7,24.9,30.22,West,270,3.1,6.0,73,0.00,,,0.00,WUHU216HW,2013-03-11 10:09:00,
2013-03-11 04:14:00,32.9,25.1,30.22,WSW,248,5.8,5.8,73,0.00,,,0.00,WUHU216HW,2013-03-11 10:14:00,
2013-03-11 04:19:00,32.9,24.8,30.22,SW,225,3.1,5.8,72,0.00,,,0.00,WUHU216HW,2013-03-11 10:19:00,
2013-03-11 04:24:00,33.0,24.9,30.22,WSW,248,3.1,5.1,72,0.00,,,0.00,WUHU216HW,2013-03-11 10:24:00,
2013-03-11 04:29:00,33.0,24.9,30.22,SSW,203,3.1,5.1,72,0.00,,,0.00,WUHU216HW,2013-03-11 10:29:00,
2013-03-11 04:34:00,33.2,25.1,30.22,WSW,248,2.4,4.6,72,0.00,,,0.00,WUHU216HW,2013-03-11 10:34:00,
2013-03-11 04:39:00,33.2,25.1,30.22,WSW,248,2.6,4.4,72,0.00,,,0.00,WUHU216HW,2013-03-11 10:39:00,
2013-03-11 04:44:00,33.2,25.1,30.22,SW,225,3.5,4.0,72,0.00,,,0.00,WUHU216HW,2013-03-11 10:44:00,
2013-03-11 04:49:00,33.0,24.9,30.21,WSW,248,3.3,4.9,72,0.00,,,0.00,WUHU216HW,2013-03-11 10:49:00,
2013-03-11 04:54:00,33.0,24.9,30.21,SSW,203,1.5,7.1,72,0.00,,,0.00,WUHU216HW,2013-03-11 10:54:00,
2013-03-11 04:59:00,33.0,24.6,30.22,West,270,3.3,7.1,71,0.00,,,0.00,WUHU216HW,2013-03-11 10:59:00,
2013-03-11 05:04:00,33.0,24.6,30.22,SW,225,1.3,5.5,71,0.00,,,0.00,WUHU216HW,2013-03-11 11:04:00,
2013-03-11 05:10:00,32.9,24.4,30.22,SW,225,3.3,5.5,71,0.00,,,0.00,WUHU216HW,2013-03-11 11:10:00,
2013-03-11 05:15:00,32.9,24.4,30.22,SW,225,3.1,4.4,71,0.00,,,0.00,WUHU216HW,2013-03-11 11:15:00,
2013-03-11 05:20:00,32.9,24.4,30.21,SW,225,2.4,3.3,71,0.00,,,0.00,WUHU216HW,2013-03-11 11:20:00,
2013-03-11 05:25:00,32.7,24.3,30.21,SW,225,2.4,5.8,71,0.00,,,0.00,WUHU216HW,2013-03-11 11:25:00,
2013-03-11 05:30:00,32.7,24.3,30.22,SW,225,4.0,5.8,71,0.00,,,0.00,WUHU216HW,2013-03-11 11:30:00,
2013-03-11 05:35:00,32.5,24.1,30.22,SSW,203,2.9,5.8,71,0.00,,,0.00,WUHU216HW,2013-03-11 11:35:00,
2013-03-11 05:40:00,32.3,24.0,30.22,SSW,203,6.9,6.9,71,0.00,,,0.00,WUHU216HW,2013-03-11 11:40:00,
2013-03-11 05:45:00,32.1,23.8,30.21,SW,225,5.1,6.9,71,0.00,,,0.00,WUHU216HW,2013-03-11 11:45:00,
2013-03-11 05:50:00,32.1,23.8,30.21,SW,225,4.6,10.2,71,0.00,,,0.00,WUHU216HW,2013-03-11 11:50:00,
2013-03-11 05:55:00,32.0,24.0,30.21,WSW,248,2.2,10.2,72,0.00,,,0.00,WUHU216HW,2013-03-11 11:55:00,
2013-03-11 06:00:00,31.8,23.8,30.21,SW,225,3.1,8.7,72,0.00,,,0.00,WUHU216HW,2013-03-11 12:00:00,
2013-03-11 06:05:00,31.8,23.8,30.21,SW,225,3.3,8.2,72,0.00,,,0.00,WUHU216HW,2013-03-11 12:05:00,
2013-03-11 06:10:00,31.8,23.8,30.22,SSW,203,4.2,5.8,72,0.00,,,0.00,WUHU216HW,2013-03-11 12:10:00,
2013-03-11 06:15:00,31.8,23.8,30.22,SSW,203,5.1,5.8,72,0.00,,,0.00,WUHU216HW,2013-03-11 12:15:00,
2013-03-11 06:20:00,31.8,23.8,30.22,SW,225,0.0,5.1,72,0.00,,,0.00,WUHU216HW,2013-03-11 12:20:00,
2013-03-11 06:25:00,31.8,23.8,30.22,WSW,248,0.0,3.5,72,0.00,,,0.00,WUHU216HW,2013-03-11 12:25:00,
2013-03-11 06:30:00,31.8,23.8,30.22,NNW,338,0.0,3.5,72,0.00,,,0.00,WUHU216HW,2013-03-11 12:30:00,
2013-03-11 06:35:00,31.8,23.8,30.22,SW,225,2.9,3.5,72,0.00,,,0.00,WUHU216HW,2013-03-11 12:35:00,
2013-03-11 06:40:00,31.6,23.6,30.22,SW,225,3.1,3.1,72,0.00,,,0.00,WUHU216HW,2013-03-11 12:40:00,
2013-03-11 06:45:00,31.2,22.9,30.22,SW,225,0.0,3.1,71,0.00,,,0.00,WUHU216HW,2013-03-11 12:45:00,
2013-03-11 06:51:00,31.2,23.2,30.22,SW,225,0.8,2.9,72,0.00,,,0.00,WUHU216HW,2013-03-11 12:51:00,
2013-03-11 06:56:00,31.1,23.1,30.22,SW,225,4.0,4.0,72,0.00,,,0.00,WUHU216HW,2013-03-11 12:56:00,
2013-03-11 07:01:00,30.9,22.9,30.22,SW,225,0.0,4.0,72,0.00,,,0.00,WUHU216HW,2013-03-11 13:01:00,
2013-03-11 07:07:00,30.9,22.9,30.22,WSW,248,0.0,3.1,72,0.00,,,0.00,WUHU216HW,2013-03-11 13:07:00,
2013-03-11 07:12:00,30.9,22.9,30.23,WSW,248,0.0,3.1,72,0.00,,,0.00,WUHU216HW,2013-03-11 13:12:00,
2013-03-11 07:17:00,30.9,22.9,30.23,SW,225,0.0,0.0,72,0.00,,,0.00,WUHU216HW,2013-03-11 13:17:00,
2013-03-11 07:22:00,30.9,22.9,30.23,SW,225,0.0,0.0,72,0.00,,,0.00,WUHU216HW,2013-03-11 13:22:00,
2013-03-11 07:27:00,30.9,22.9,30.23,SW,225,0.0,0.0,72,0.00,,,0.00,WUHU216HW,2013-03-11 13:27:00,
2013-03-11 07:32:00,30.7,22.7,30.23,SW,225,3.5,5.1,72,0.00,,,0.00,WUHU216HW,2013-03-11 13:32:00,
2013-03-11 07:37:00,30.7,22.7,30.23,SW,225,1.5,5.1,72,0.00,,,0.00,WUHU216HW,2013-03-11 13:37:00,
2013-03-11 07:42:00,30.9,22.9,30.23,South,180,0.0,3.8,72,0.00,,,0.00,WUHU216HW,2013-03-11 13:42:00,
2013-03-11 07:47:00,31.1,22.7,30.23,West,270,0.0,3.8,71,0.00,,,0.00,WUHU216HW,2013-03-11 13:47:00,
2013-03-11 07:52:00,31.2,22.9,30.23,SW,225,4.2,4.2,71,0.00,,,0.00,WUHU216HW,2013-03-11 13:52:00,
2013-03-11 07:57:00,31.2,22.6,30.23,WSW,248,1.1,4.2,70,0.00,,,0.00,WUHU216HW,2013-03-11 13:57:00,
2013-03-11 08:02:00,31.2,22.6,30.23,SW,225,3.1,4.6,70,0.00,,,0.00,WUHU216HW,2013-03-11 14:02:00,
2013-03-11 08:08:00,31.2,22.6,30.24,SSW,203,0.0,4.6,70,0.00,,,0.00,WUHU216HW,2013-03-11 14:08:00,
2013-03-11 08:13:00,31.2,22.2,30.24,SSW,203,3.8,3.8,69,0.00,,,0.00,WUHU216HW,2013-03-11 14:13:00,
2013-03-11 08:18:00,31.2,22.2,30.24,SW,225,0.0,3.8,69,0.00,,,0.00,WUHU216HW,2013-03-11 14:18:00,
2013-03-11 08:23:00,31.2,22.1,30.24,SW,225,0.0,2.2,69,0.00,,,0.00,WUHU216HW,2013-03-11 14:23:00,
2013-03-11 08:28:00,31.1,22.1,30.24,SW,225,0.0,1.7,69,0.00,,,0.00,WUHU216HW,2013-03-11 14:28:00,
2013-03-11 08:33:00,30.9,21.9,30.24,SW,225,0.0,2.6,69,0.00,,,0.00,WUHU216HW,2013-03-11 14:33:00,
2013-03-11 08:38:00,30.7,21.7,30.24,SW,225,2.0,2.6,69,0.00,,,0.00,WUHU216HW,2013-03-11 14:38:00,
2013-03-11 08:43:00,30.7,21.7,30.24,SW,225,2.4,2.4,69,0.00,,,0.00,WUHU216HW,2013-03-11 14:43:00,
2013-03-11 08:48:00,30.7,21.7,30.24,SW,225,2.9,4.6,69,0.00,,,0.00,WUHU216HW,2013-03-11 14:48:00,
2013-03-11 08:53:00,30.7,21.7,30.24,WSW,248,1.7,4.6,69,0.00,,,0.00,WUHU216HW,2013-03-11 14:53:00,
2013-03-11 08:58:00,30.7,21.7,30.24,West,270,4.0,4.0,69,0.00,,,0.00,WUHU216HW,2013-03-11 14:58:00,
2013-03-11 09:03:00,30.7,21.7,30.24,West,270,3.8,4.0,69,0.00,,,0.00,WUHU216HW,2013-03-11 15:03:00,
2013-03-11 09:08:00,30.7,21.7,30.24,SW,225,1.3,3.8,69,0.00,,,0.00,WUHU216HW,2013-03-11 15:08:00,
2013-03-11 09:13:00,30.7,21.7,30.24,WSW,248,1.7,3.5,69,0.00,,,0.00,WUHU216HW,2013-03-11 15:13:00,
2013-03-11 09:19:00,30.7,21.7,30.24,West,270,1.7,4.0,69,0.00,,,0.00,WUHU216HW,2013-03-11 15:19:00,
2013-03-11 09:24:00,30.7,21.7,30.25,West,270,3.5,4.0,69,0.00,,,0.00,WUHU216HW,2013-03-11 15:24:00,
2013-03-11 09:29:00,30.7,21.3,30.25,West,270,2.9,5.1,68,0.00,,,0.00,WUHU216HW,2013-03-11 15:29:00,
2013-03-11 09:34:00,30.9,21.5,30.24,WNW,293,3.8,5.1,68,0.00,,,0.00,WUHU216HW,2013-03-11 15:34:00,
2013-03-11 09:39:00,31.1,21.7,30.25,West,270,6.4,6.4,68,0.00,,,0.00,WUHU216HW,2013-03-11 15:39:00,
2013-03-11 09:44:00,31.2,21.5,30.25,WNW,293,1.5,6.4,67,0.00,,,0.00,WUHU216HW,2013-03-11 15:44:00,
2013-03-11 09:49:00,31.6,21.9,30.25,West,270,2.0,4.2,67,0.00,,,0.00,WUHU216HW,2013-03-11 15:49:00,
2013-03-11 09:54:00,31.8,22.1,30.25,WNW,293,5.5,5.5,67,0.00,,,0.00,WUHU216HW,2013-03-11 15:54:00,
2013-03-11 09:59:00,32.0,21.7,30.25,North,0,0.0,5.5,66,0.00,,,0.00,WUHU216HW,2013-03-11 15:59:00,
2013-03-11 10:04:00,32.1,21.8,30.25,WNW,293,3.8,5.3,66,0.00,,,0.00,WUHU216HW,2013-03-11 16:04:00,
2013-03-11 10:09:00,32.7,22.2,30.25,NNW,338,1.7,9.6,65,0.00,,,0.00,WUHU216HW,2013-03-11 16:09:00,
2013-03-11 10:14:00,33.2,22.3,30.25,WNW,293,1.1,9.6,64,0.00,,,0.00,WUHU216HW,2013-03-11 16:14:00,
2013-03-11 10:19:00,33.6,22.2,30.25,NE,45,1.1,14.0,63,0.00,,,0.00,WUHU216HW,2013-03-11 16:19:00,
2013-03-11 10:25:00,34.3,22.2,30.25,NNE,23,7.8,14.0,61,0.00,,,0.00,WUHU216HW,2013-03-11 16:25:00,
2013-03-11 10:30:00,34.3,21.9,30.25,North,0,0.0,13.8,60,0.00,,,0.00,WUHU216HW,2013-03-11 16:30:00,
2013-03-11 10:35:00,34.7,22.2,30.25,NW,315,2.4,13.8,60,0.00,,,0.00,WUHU216HW,2013-03-11 16:35:00,
2013-03-11 10:40:00,35.2,22.3,30.25,West,270,4.2,7.1,59,0.00,,,0.00,WUHU216HW,2013-03-11 16:40:00,
2013-03-11 10:45:00,35.4,21.7,30.26,NW,315,11.8,11.8,57,0.00,,,0.00,WUHU216HW,2013-03-11 16:45:00,
2013-03-11 10:50:00,35.7,21.6,30.26,WNW,293,11.1,11.8,56,0.00,,,0.00,WUHU216HW,2013-03-11 16:50:00,
2013-03-11 10:55:00,35.9,21.7,30.26,WNW,293,8.9,11.1,56,0.00,,,0.00,WUHU216HW,2013-03-11 16:55:00,
2013-03-11 11:00:00,36.1,21.5,30.26,WNW,293,8.2,15.4,55,0.00,,,0.00,WUHU216HW,2013-03-11 17:00:00,
2013-03-11 11:05:00,35.9,21.3,30.26,WNW,293,2.0,15.4,55,0.00,,,0.00,WUHU216HW,2013-03-11 17:05:00,
2013-03-11 11:10:00,36.1,21.5,30.26,North,0,3.1,12.0,55,0.00,,,0.00,WUHU216HW,2013-03-11 17:10:00,
2013-03-11 11:15:00,36.6,21.9,30.26,WNW,293,3.5,10.5,55,0.00,,,0.00,WUHU216HW,2013-03-11 17:15:00,
2013-03-11 11:21:00,37.0,22.3,30.26,West,270,5.5,7.1,55,0.00,,,0.00,WUHU216HW,2013-03-11 17:21:00,
2013-03-11 11:26:00,37.4,22.2,30.26,West,270,6.2,8.0,54,0.00,,,0.00,WUHU216HW,2013-03-11 17:26:00,
2013-03-11 11:31:00,37.9,22.2,30.26,North,0,2.6,9.1,53,0.00,,,0.00,WUHU216HW,2013-03-11 17:31:00,
2013-03-11 11:36:00,38.4,22.3,30.26,WNW,293,2.4,10.9,52,0.00,,,0.00,WUHU216HW,2013-03-11 17:36:00,
2013-03-11 11:41:00,38.8,22.6,30.26,West,270,6.0,10.9,52,0.00,,,0.00,WUHU216HW,2013-03-11 17:41:00,
2013-03-11 11:46:00,38.4,22.3,30.26,West,270,3.8,6.0,52,0.00,,,0.00,WUHU216HW,2013-03-11 17:46:00,
2013-03-11 11:52:00,38.3,21.7,30.26,NNW,338,5.8,18.3,51,0.00,,,0.00,WUHU216HW,2013-03-11 17:52:00,
2013-03-11 11:57:00,37.5,21.6,30.26,NW,315,12.3,18.3,52,0.00,,,0.00,WUHU216HW,2013-03-11 17:57:00,
2013-03-11 12:02:00,37.2,21.1,30.27,WNW,293,12.9,12.9,52,0.00,,,0.00,WUHU216HW,2013-03-11 18:02:00,
2013-03-11 12:07:00,37.2,20.7,30.26,WNW,293,0.0,12.9,51,0.00,,,0.00,WUHU216HW,2013-03-11 18:07:00,
2013-03-11 12:12:00,37.5,21.0,30.27,West,270,4.0,10.5,51,0.00,,,0.00,WUHU216HW,2013-03-11 18:12:00,
2013-03-11 12:17:00,38.1,20.6,30.26,NNW,338,4.9,9.6,49,0.00,,,0.00,WUHU216HW,2013-03-11 18:17:00,
2013-03-11 12:22:00,38.4,20.4,30.26,WNW,293,3.3,8.9,48,0.00,,,0.00,WUHU216HW,2013-03-11 18:22:00,
2013-03-11 12:27:00,38.8,19.8,30.27,WNW,293,2.6,7.8,47,0.00,,,0.00,WUHU216HW,2013-03-11 18:27:00,
2013-03-11 12:32:00,38.4,19.8,30.26,West,270,4.9,6.9,47,0.00,,,0.00,WUHU216HW,2013-03-11 18:32:00,
2013-03-11 12:37:00,38.6,19.5,30.26,WNW,293,9.1,10.0,46,0.00,,,0.00,WUHU216HW,2013-03-11 18:37:00,
2013-03-11 12:42:00,38.8,19.6,30.26,NW,315,0.6,10.0,46,0.00,,,0.00,WUHU216HW,2013-03-11 18:42:00,
2013-03-11 12:47:00,39.0,19.3,30.26,North,0,6.2,6.2,45,0.00,,,0.00,WUHU216HW,2013-03-11 18:47:00,
2013-03-11 12:52:00,39.0,19.3,30.26,West,270,4.2,9.6,45,0.00,,,0.00,WUHU216HW,2013-03-11 18:52:00,
2013-03-11 12:58:00,38.8,19.1,30.26,WNW,293,0.8,9.6,45,0.00,,,0.00,WUHU216HW,2013-03-11 18:58:00,
2013-03-11 13:03:00,38.8,19.6,30.26,West,270,4.9,7.3,46,0.00,,,0.00,WUHU216HW,2013-03-11 19:03:00,
2013-03-11 13:08:00,38.8,19.1,30.26,WNW,293,9.1,10.0,45,0.00,,,0.00,WUHU216HW,2013-03-11 19:08:00,
2013-03-11 13:13:00,38.8,18.6,30.26,WNW,293,2.9,14.3,44,0.00,,,0.00,WUHU216HW,2013-03-11 19:13:00,
2013-03-11 13:18:00,38.8,18.6,30.26,NNE,23,8.0,14.3,44,0.00,,,0.00,WUHU216HW,2013-03-11 19:18:00,
2013-03-11 13:23:00,38.4,17.7,30.26,WNW,293,12.7,17.0,43,0.00,,,0.00,WUHU216HW,2013-03-11 19:23:00,
2013-03-11 13:28:00,38.6,18.4,30.26,WNW,293,6.0,17.0,44,0.00,,,0.00,WUHU216HW,2013-03-11 19:28:00,
2013-03-11 13:33:00,38.4,18.3,30.26,WNW,293,3.5,9.8,44,0.00,,,0.00,WUHU216HW,2013-03-11 19:33:00,
2013-03-11 13:38:00,38.3,18.6,30.26,NNW,338,8.9,8.9,45,0.00,,,0.00,WUHU216HW,2013-03-11 19:38:00,
2013-03-11 13:43:00,38.4,18.8,30.26,North,0,14.7,14.7,45,0.00,,,0.00,WUHU216HW,2013-03-11 19:43:00,
2013-03-11 13:49:00,38.4,18.3,30.26,NNW,338,3.8,14.7,44,0.00,,,0.00,WUHU216HW,2013-03-11 19:49:00,
2013-03-11 13:54:00,38.3,18.6,30.26,North,0,4.0,10.9,45,0.00,,,0.00,WUHU216HW,2013-03-11 19:54:00,
2013-03-11 13:59:00,38.4,18.3,30.26,NNW,338,9.3,10.7,44,0.00,,,0.00,WUHU216HW,2013-03-11 19:59:00,
2013-03-11 14:04:00,38.3,17.6,30.26,WNW,293,3.1,11.4,43,0.00,,,0.00,WUHU216HW,2013-03-11 20:04:00,
2013-03-11 14:09:00,38.3,17.6,30.26,West,270,2.9,11.4,43,0.00,,,0.00,WUHU216HW,2013-03-11 20:09:00,
2013-03-11 14:14:00,38.4,17.2,30.26,WNW,293,6.2,12.7,42,0.00,,,0.00,WUHU216HW,2013-03-11 20:14:00,
2013-03-11 14:19:00,38.4,17.2,30.26,WNW,293,11.6,12.9,42,0.00,,,0.00,WUHU216HW,2013-03-11 20:19:00,
2013-03-11 14:24:00,38.4,17.2,30.26,West,270,2.9,12.9,42,0.00,,,0.00,WUHU216HW,2013-03-11 20:24:00,
2013-03-11 14:29:00,38.8,17.6,30.25,NW,315,11.4,12.0,42,0.00,,,0.00,WUHU216HW,2013-03-11 20:29:00,
2013-03-11 14:34:00,39.0,17.7,30.25,West,270,4.9,12.3,42,0.00,,,0.00,WUHU216HW,2013-03-11 20:34:00,
2013-03-11 14:39:00,39.0,17.2,30.25,NW,315,4.2,12.3,41,0.00,,,0.00,WUHU216HW,2013-03-11 20:39:00,
2013-03-11 14:44:00,39.3,17.5,30.25,SW,225,2.0,11.6,41,0.00,,,0.00,WUHU216HW,2013-03-11 20:44:00,
2013-03-11 14:49:00,39.5,17.7,30.25,NNW,338,6.7,7.1,41,0.00,,,0.00,WUHU216HW,2013-03-11 20:49:00,
2013-03-11 14:54:00,39.7,17.3,30.25,NW,315,6.9,11.4,40,0.00,,,0.00,WUHU216HW,2013-03-11 20:54:00,
2013-03-11 14:59:00,39.7,17.3,30.25,North,0,4.2,11.4,40,0.00,,,0.00,WUHU216HW,2013-03-11 20:59:00,
2013-03-11 15:04:00,39.5,17.2,30.25,NW,315,4.4,16.5,40,0.00,,,0.00,WUHU216HW,2013-03-11 21:04:00,
2013-03-11 15:10:00,39.3,17.0,30.25,WNW,293,4.4,16.5,40,0.00,,,0.00,WUHU216HW,2013-03-11 21:10:00,
2013-03-11 15:15:00,39.3,17.5,30.25,NE,45,2.9,7.8,41,0.00,,,0.00,WUHU216HW,2013-03-11 21:15:00,
2013-03-11 15:20:00,39.3,17.5,30.25,NW,315,9.1,9.1,41,0.00,,,0.00,WUHU216HW,2013-03-11 21:20:00,
2013-03-11 15:25:00,39.3,17.5,30.25,WNW,293,9.8,11.1,41,0.00,,,0.00,WUHU216HW,2013-03-11 21:25:00,
2013-03-11 15:30:00,39.7,18.4,30.24,North,0,11.4,11.4,42,0.00,,,0.00,WUHU216HW,2013-03-11 21:30:00,
2013-03-11 15:35:00,40.1,18.7,30.25,West,270,3.3,11.4,42,0.00,,,0.00,WUHU216HW,2013-03-11 21:35:00,
2013-03-11 15:40:00,40.6,18.6,30.24,WSW,248,1.7,10.9,41,0.00,,,0.00,WUHU216HW,2013-03-11 21:40:00,
2013-03-11 15:45:00,40.8,18.8,30.25,WNW,293,7.6,7.6,41,0.00,,,0.00,WUHU216HW,2013-03-11 21:45:00,
2013-03-11 15:50:00,40.8,19.3,30.24,NNW,338,4.0,7.6,42,0.00,,,0.00,WUHU216HW,2013-03-11 21:50:00,
2013-03-11 15:55:00,41.1,19.0,30.25,NE,45,0.0,8.0,41,0.00,,,0.00,WUHU216HW,2013-03-11 21:55:00,
2013-03-11 16:00:00,41.3,19.8,30.25,NW,315,5.8,8.9,42,0.00,,,0.00,WUHU216HW,2013-03-11 22:00:00,
2013-03-11 16:05:00,41.5,19.5,30.25,WSW,248,0.0,9.6,41,0.00,,,0.00,WUHU216HW,2013-03-11 22:05:00,
2013-03-11 16:10:00,41.5,20.0,30.25,WSW,248,4.4,11.1,42,0.00,,,0.00,WUHU216HW,2013-03-11 22:10:00,
2013-03-11 16:15:00,41.3,19.8,30.25,WNW,293,4.9,11.1,42,0.00,,,0.00,WUHU216HW,2013-03-11 22:15:00,
2013-03-11 16:20:00,41.1,19.7,30.24,NW,315,9.1,9.3,42,0.00,,,0.00,WUHU216HW,2013-03-11 22:20:00,
2013-03-11 16:26:00,40.8,19.3,30.25,NW,315,6.7,9.1,42,0.00,,,0.00,WUHU216HW,2013-03-11 22:26:00,
2013-03-11 16:31:00,40.6,19.7,30.25,NNW,338,11.8,11.8,43,0.00,,,0.00,WUHU216HW,2013-03-11 22:31:00,
2013-03-11 16:36:00,40.6,19.2,30.24,WNW,293,2.6,11.8,42,0.00,,,0.00,WUHU216HW,2013-03-11 22:36:00,
2013-03-11 16:41:00,40.2,19.4,30.25,NNW,338,5.8,8.2,43,0.00,,,0.00,WUHU216HW,2013-03-11 22:41:00,
2013-03-11 16:46:00,40.1,19.2,30.25,WNW,293,2.4,5.8,43,0.00,,,0.00,WUHU216HW,2013-03-11 22:46:00,
2013-03-11 16:51:00,40.1,19.2,30.24,WNW,293,5.8,7.1,43,0.00,,,0.00,WUHU216HW,2013-03-11 22:51:00,
2013-03-11 16:56:00,39.9,19.0,30.25,NNW,338,5.1,7.1,43,0.00,,,0.00,WUHU216HW,2013-03-11 22:56:00,
2013-03-11 17:01:00,40.1,19.0,30.25,West,270,3.5,12.3,43,0.00,,,0.00,WUHU216HW,2013-03-11 23:01:00,
2013-03-11 17:07:00,40.1,19.2,30.25,West,270,2.2,12.3,43,0.00,,,0.00,WUHU216HW,2013-03-11 23:07:00,
2013-03-11 17:12:00,40.1,19.7,30.25,West,270,3.8,5.8,44,0.00,,,0.00,WUHU216HW,2013-03-11 23:12:00,
2013-03-11 17:17:00,40.2,19.4,30.25,West,270,6.4,7.6,43,0.00,,,0.00,WUHU216HW,2013-03-11 23:17:00,
2013-03-11 17:22:00,40.1,19.2,30.25,NW,315,7.6,7.6,43,0.00,,,0.00,WUHU216HW,2013-03-11 23:22:00,
2013-03-11 17:27:00,39.9,19.0,30.25,WNW,293,5.3,10.5,43,0.00,,,0.00,WUHU216HW,2013-03-11 23:27:00,
2013-03-11 17:32:00,39.5,18.7,30.25,NW,315,3.3,10.5,43,0.00,,,0.00,WUHU216HW,2013-03-11 23:32:00,
2013-03-11 17:37:00,39.0,18.8,30.25,NNW,338,2.6,5.1,44,0.00,,,0.00,WUHU216HW,2013-03-11 23:37:00,
2013-03-11 17:42:00,39.0,18.8,30.25,NNW,338,5.3,5.3,44,0.00,,,0.00,WUHU216HW,2013-03-11 23:42:00,
2013-03-11 17:47:00,39.0,18.8,30.25,NW,315,6.4,6.4,44,0.00,,,0.00,WUHU216HW,2013-03-11 23:47:00,
2013-03-11 17:53:00,39.3,19.1,30.25,West,270,0.6,7.6,44,0.00,,,0.00,WUHU216HW,2013-03-11 23:53:00,
2013-03-11 17:58:00,39.5,19.2,30.25,WNW,293,8.2,11.1,44,0.00,,,0.00,WUHU216HW,2013-03-11 23:58:00,
2013-03-11 18:03:00,39.7,19.4,30.25,NW,315,2.6,11.1,43,0.00,,,0.00,WUHU216HW,2013-03-12 00:03:00,
2013-03-11 18:08:00,40.1,19.7,30.25,NW,315,7.6,7.6,44,0.00,,,0.00,WUHU216HW,2013-03-12 00:08:00,
2013-03-11 18:13:00,40.4,19.5,30.25,NW,315,5.1,7.6,43,0.00,,,0.00,WUHU216HW,2013-03-12 00:13:00,
2013-03-11 18:18:00,40.8,19.9,30.25,West,270,2.9,7.3,43,0.00,,,0.00,WUHU216HW,2013-03-12 00:18:00,
2013-03-11 18:23:00,41.0,20.7,30.25,NW,315,0.0,6.9,44,0.00,,,0.00,WUHU216HW,2013-03-12 00:23:00,
2013-03-11 18:28:00,41.1,20.2,30.25,NNW,338,2.4,5.5,43,0.00,,,0.00,WUHU216HW,2013-03-12 00:28:00,
2013-03-11 18:33:00,41.3,20.2,30.25,North,0,3.3,9.3,43,0.00,,,0.00,WUHU216HW,2013-03-12 00:33:00,
2013-03-11 18:38:00,41.1,20.2,30.25,West,270,0.0,9.3,43,0.00,,,0.00,WUHU216HW,2013-03-12 00:38:00,
2013-03-11 18:43:00,40.8,19.9,30.25,NW,315,0.0,6.4,43,0.00,,,0.00,WUHU216HW,2013-03-12 00:43:00,
2013-03-11 18:48:00,40.6,19.7,30.26,NW,315,0.0,6.4,43,0.00,,,0.00,WUHU216HW,2013-03-12 00:48:00,
2013-03-11 18:53:00,40.6,19.7,30.26,West,270,0.0,6.0,43,0.00,,,0.00,WUHU216HW,2013-03-12 00:53:00,
2013-03-11 18:58:00,40.6,19.7,30.26,North,0,2.6,4.4,43,0.00,,,0.00,WUHU216HW,2013-03-12 00:58:00,
2013-03-11 19:03:00,40.6,19.7,30.26,NW,315,3.8,7.8,43,0.00,,,0.00,WUHU216HW,2013-03-12 01:03:00,
2013-03-11 19:09:00,40.1,19.2,30.26,NNE,23,0.0,7.8,43,0.00,,,0.00,WUHU216HW,2013-03-12 01:09:00,
2013-03-11 19:14:00,39.7,18.9,30.26,NNE,23,0.0,4.2,43,0.00,,,0.00,WUHU216HW,2013-03-12 01:14:00,
2013-03-11 19:19:00,39.0,18.8,30.27,NNE,23,0.0,1.7,44,0.00,,,0.00,WUHU216HW,2013-03-12 01:19:00,
2013-03-11 19:24:00,38.6,18.4,30.26,NNW,338,0.0,0.0,44,0.00,,,0.00,WUHU216HW,2013-03-12 01:24:00,
2013-03-11 19:29:00,37.9,18.5,30.26,West,270,0.0,1.5,45,0.00,,,0.00,WUHU216HW,2013-03-12 01:29:00,
2013-03-11 19:34:00,37.5,18.0,30.26,WSW,248,0.0,1.5,45,0.00,,,0.00,WUHU216HW,2013-03-12 01:34:00,
2013-03-11 19:39:00,37.2,18.2,30.27,WSW,248,0.0,2.0,46,0.00,,,0.00,WUHU216HW,2013-03-12 01:39:00,
2013-03-11 19:44:00,36.5,17.5,30.27,SW,225,1.3,3.1,46,0.00,,,0.00,WUHU216HW,2013-03-12 01:44:00,
2013-03-11 19:49:00,36.1,17.2,30.27,West,270,0.0,3.1,46,0.00,,,0.00,WUHU216HW,2013-03-12 01:49:00,
2013-03-11 19:54:00,35.7,17.4,30.27,WSW,248,0.0,2.9,47,0.00,,,0.00,WUHU216HW,2013-03-12 01:54:00,
2013-03-11 19:59:00,35.4,17.1,30.27,SW,225,2.4,2.4,47,0.00,,,0.00,WUHU216HW,2013-03-12 01:59:00,
2013-03-11 20:04:00,35.2,17.4,30.27,SW,225,1.3,3.8,48,0.00,,,0.00,WUHU216HW,2013-03-12 02:04:00,
2013-03-11 20:09:00,35.2,17.4,30.27,SSW,203,0.0,3.8,48,0.00,,,0.00,WUHU216HW,2013-03-12 02:09:00,
2013-03-11 20:14:00,34.8,17.0,30.27,WSW,248,0.0,3.5,48,0.00,,,0.00,WUHU216HW,2013-03-12 02:14:00,
2013-03-11 20:20:00,34.8,16.5,30.28,SW,225,2.2,3.1,47,0.00,,,0.00,WUHU216HW,2013-03-12 02:20:00,
2013-03-11 20:25:00,34.7,16.4,30.28,West,270,2.0,2.6,47,0.00,,,0.00,WUHU216HW,2013-03-12 02:25:00,
2013-03-11 20:30:00,34.5,16.2,30.27,West,270,0.0,2.6,47,0.00,,,0.00,WUHU216HW,2013-03-12 02:30:00,
2013-03-11 20:35:00,34.3,16.0,30.28,SW,225,1.3,1.3,47,0.00,,,0.00,WUHU216HW,2013-03-12 02:35:00,
2013-03-11 20:40:00,34.3,16.5,30.28,SW,225,0.0,1.3,48,0.00,,,0.00,WUHU216HW,2013-03-12 02:40:00,
2013-03-11 20:45:00,34.1,16.3,30.28,SW,225,0.0,0.0,48,0.00,,,0.00,WUHU216HW,2013-03-12 02:45:00,
2013-03-11 20:50:00,33.9,15.7,30.28,West,270,0.0,1.7,47,0.00,,,0.00,WUHU216HW,2013-03-12 02:50:00,
2013-03-11 20:55:00,33.6,15.3,30.28,West,270,0.0,1.7,47,0.00,,,0.00,WUHU216HW,2013-03-12 02:55:00,
2013-03-11 21:00:00,33.6,15.8,30.28,West,270,0.0,0.0,48,0.00,,,0.00,WUHU216HW,2013-03-12 03:00:00,
2013-03-11 21:05:00,33.4,15.7,30.28,West,270,0.0,0.0,48,0.00,,,0.00,WUHU216HW,2013-03-12 03:05:00,
2013-03-11 21:10:00,33.2,15.5,30.28,WSW,248,0.0,0.0,48,0.00,,,0.00,WUHU216HW,2013-03-12 03:10:00,
2013-03-11 21:15:00,33.0,15.4,30.28,South,180,4.9,4.9,48,0.00,,,0.00,WUHU216HW,2013-03-12 03:15:00,
2013-03-11 21:20:00,32.7,15.0,30.28,SSW,203,4.2,6.0,48,0.00,,,0.00,WUHU216HW,2013-03-12 03:20:00,
2013-03-11 21:25:00,32.7,15.0,30.28,SSW,203,4.0,6.0,48,0.00,,,0.00,WUHU216HW,2013-03-12 03:25:00,
2013-03-11 21:30:00,32.7,15.0,30.28,SSW,203,0.0,4.4,48,0.00,,,0.00,WUHU216HW,2013-03-12 03:30:00,
2013-03-11 21:35:00,32.7,15.0,30.28,SSW,203,0.0,1.7,48,0.00,,,0.00,WUHU216HW,2013-03-12 03:35:00,
2013-03-11 21:41:00,32.9,15.7,30.28,SSW,203,0.0,0.0,49,0.00,,,0.00,WUHU216HW,2013-03-12 03:41:00,
2013-03-11 21:46:00,32.9,15.7,30.28,SSW,203,1.5,1.5,49,0.00,,,0.00,WUHU216HW,2013-03-12 03:46:00,
2013-03-11 21:51:00,32.7,15.0,30.28,SSW,203,3.5,3.5,48,0.00,,,0.00,WUHU216HW,2013-03-12 03:51:00,
2013-03-11 21:56:00,32.7,15.0,30.28,SSW,203,3.1,3.5,48,0.00,,,0.00,WUHU216HW,2013-03-12 03:56:00,
2013-03-11 22:00:00,32.7,15.0,30.28,SSW,203,0.0,3.5,48,0.00,,,0.00,WUHU216HW,2013-03-12 04:00:00,
2013-03-11 22:01:00,32.7,15.0,30.28,SSW,203,1.1,3.1,48,0.00,,,0.00,WUHU216HW,2013-03-12 04:01:00,
2013-03-11 22:06:00,32.7,15.0,30.28,SSW,203,3.1,3.1,48,0.00,,,0.00,WUHU216HW,2013-03-12 04:06:00,
2013-03-11 22:11:00,32.7,15.0,30.28,SSW,203,2.9,3.1,48,0.00,,,0.00,WUHU216HW,2013-03-12 04:11:00,
2013-03-11 22:16:00,32.7,15.0,30.28,SSW,203,2.4,4.2,48,0.00,,,0.00,WUHU216HW,2013-03-12 04:16:00,
2013-03-11 22:21:00,32.5,14.9,30.28,SSW,203,3.5,5.1,48,0.00,,,0.00,WUHU216HW,2013-03-12 04:21:00,
2013-03-11 22:26:00,32.5,14.9,30.28,SSW,203,4.2,5.1,48,0.00,,,0.00,WUHU216HW,2013-03-12 04:26:00,
2013-03-11 22:32:00,32.5,14.9,30.28,SSW,203,5.1,5.5,48,0.00,,,0.00,WUHU216HW,2013-03-12 04:32:00,
2013-03-11 22:37:00,32.7,15.0,30.28,SSW,203,3.5,5.5,48,0.00,,,0.00,WUHU216HW,2013-03-12 04:37:00,
2013-03-11 22:42:00,32.7,15.0,30.28,SSW,203,3.3,5.3,48,0.00,,,0.00,WUHU216HW,2013-03-12 04:42:00,
2013-03-11 22:47:00,32.7,15.0,30.28,SSW,203,2.6,5.1,48,0.00,,,0.00,WUHU216HW,2013-03-12 04:47:00,
2013-03-11 22:52:00,32.5,15.4,30.28,South,180,2.4,4.2,49,0.00,,,0.00,WUHU216HW,2013-03-12 04:52:00,
2013-03-11 22:57:00,32.3,15.2,30.28,SSW,203,3.1,4.9,49,0.00,,,0.00,WUHU216HW,2013-03-12 04:57:00,
2013-03-11 23:02:00,32.1,15.0,30.28,SSW,203,1.1,4.9,49,0.00,,,0.00,WUHU216HW,2013-03-12 05:02:00,
2013-03-11 23:07:00,32.1,15.6,30.28,SSW,203,0.0,3.5,50,0.00,,,0.00,WUHU216HW,2013-03-12 05:07:00,
2013-03-11 23:12:00,31.6,15.5,30.28,SSW,203,0.0,0.0,51,0.00,,,0.00,WUHU216HW,2013-03-12 05:12:00,
2013-03-11 23:17:00,31.1,15.0,30.28,SSW,203,0.0,0.0,51,0.00,,,0.00,WUHU216HW,2013-03-12 05:17:00,
2013-03-11 23:23:00,30.7,14.7,30.28,SSW,203,0.0,0.0,51,0.00,,,0.00,WUHU216HW,2013-03-12 05:23:00,
2013-03-11 23:28:00,30.0,14.4,30.28,SSW,203,0.0,0.0,52,0.00,,,0.00,WUHU216HW,2013-03-12 05:28:00,
2013-03-11 23:33:00,29.8,14.1,30.28,SSW,203,0.0,0.0,52,0.00,,,0.00,WUHU216HW,2013-03-12 05:33:00,
2013-03-11 23:39:00,29.3,14.2,30.28,SSW,203,0.0,0.0,53,0.00,,,0.00,WUHU216HW,2013-03-12 05:39:00,
2013-03-11 23:44:00,29.1,14.0,30.28,SSW,203,0.0,0.0,53,0.00,,,0.00,WUHU216HW,2013-03-12 05:44:00,
2013-03-11 23:49:00,29.1,14.0,30.28,SSW,203,0.0,0.0,53,0.00,,,0.00,WUHU216HW,2013-03-12 05:49:00,
2013-03-11 23:54:00,29.1,14.0,30.28,SSW,203,0.0,0.0,53,0.00,,,0.00,WUHU216HW,2013-03-12 05:54:00,
2013-03-11 23:59:00,29.1,14.5,30.28,SSW,203,0.0,0.0,54,0.00,,,0.00,WUHU216HW,2013-03-12 05:59:00,